Location: ????????
(54.9045°N, 39.1041°E)
Time: 11:20:50
(UTC+00:00)

CZ-4 R/B - Pass Details

Date: 14 April 2024
Orbit: 677 x 749 km, 98.6° (Epoch: 21 May)

Event Time Altitude Azimuth Distance (km) Brightness Sun altitude
Rises 01:21:34 0° 14° (NNE) 3,139 7.9 -8.8°
Reaches altitude 10° 01:23:53 10° 11° (N) 2,203 7.0 -8.5°
Maximum altitude 01:28:37 60° 293° (WNW) 807 4.0 -7.9°
Drops below altitude 10° 01:33:14 10° 213° (SSW) 2,145 5.8 -7.3°
Enters shadow 01:34:20 - 212° (SSW) 2,589 6.2 -7.2°
